Weather History for KOMH - April, 2014

Change the Weather History Date:

Sunday, April 27, 2014

  Actual Average Record
Temperature  
Mean Temperature 60 °F -  
Max Temperature 69 °F 67 °F 92 °F (1957)
Min Temperature 50 °F 45 °F 30 °F (1976)
Degree Days  
Heating Degree Days 6    
Growing Degree Days 10 (Base 50)    
Moisture  
Dew Point 38 °F    
Average Humidity 48    
Maximum Humidity 76    
Minimum Humidity 28    
Precipitation  
Precipitation 0.00 in - - ()
Sea Level Pressure  
Sea Level Pressure 30.03 in    
Wind  
Wind Speed 6 mph (North)    
Max Wind Speed 10 mph    
Max Gust Speed 18 mph    
Visibility 10 miles    
Events      
Averages and records for this station are not official NWS values.
T = Trace of Precipitation, MM = Missing Value Source: NWS Daily Summary

Daily Weather History Graph

Daily Weather History Graph

Search for Another Location

Airport or City:

Trip Planner

Search our weather history database for the weather conditions in past years. The results will help you decide how hot, cold, wet, or windy it might be!

Date:

Astronomy

Apr. 27, 2014 Rise Set
Actual Time 6:20 AM EDT 7:59 PM EDT
Civil Twilight 5:52 AM EDT 8:27 PM EDT
Nautical Twilight 5:18 AM EDT 9:02 PM EDT
Astronomical Twilight 4:42 AM EDT 9:38 PM EDT
Moon 5:17 AM EDT (4/27) 6:32 PM EDT (4/27)
Length of Visible Light 14h 35m
Length of Day
13h 39m
Waning Crescent, 3% of the Moon is Illuminated
Apr 27
Waning Crescent
Apr 29
New
May 6
First Quarter
May 14
Full
May 21
Last Quarter

Hourly Weather History & Observations

Time (EDT) Temp. Dew Point Humidity Pressure Visibility Wind Dir Wind Speed Gust Speed Precip Events Conditions
12:15 AM 60.8 °F 44.6 °F 55% 29.91 in 10.0 mi NNW 6.9 mph - N/A   Clear
12:35 AM 60.8 °F 44.6 °F 55% 29.91 in 10.0 mi NW 5.8 mph - N/A   Clear
12:55 AM 60.8 °F 44.6 °F 55% 29.92 in 10.0 mi NNW 8.1 mph - N/A   Clear
1:15 AM 60.8 °F 44.6 °F 55% 29.92 in 10.0 mi NNW 9.2 mph - N/A   Clear
1:35 AM 60.8 °F 44.6 °F 55% 29.92 in 10.0 mi NNW 10.4 mph - N/A   Clear
2:15 AM 59.0 °F 42.8 °F 55% 29.94 in 10.0 mi NNW 10.4 mph 18.4 mph N/A   Clear
2:35 AM 57.2 °F 42.8 °F 59% 29.94 in 10.0 mi NNW 10.4 mph 17.3 mph N/A   Clear
2:55 AM 55.4 °F 42.8 °F 63% 29.95 in 10.0 mi North 9.2 mph 16.1 mph N/A   Clear
3:15 AM 55.4 °F 41.0 °F 58% 29.96 in 10.0 mi NNW 10.4 mph - N/A   Clear
3:55 AM 53.6 °F 37.4 °F 54% 29.98 in - North 8.1 mph - N/A   Unknown
3:56 AM 55.4 °F 39.2 °F 54% 29.98 in 10.0 mi NNW 8.1 mph - N/A   Unknown
4:15 AM 51.8 °F 37.4 °F 58% 29.98 in 10.0 mi North 5.8 mph - N/A   Clear
4:35 AM 51.8 °F 37.4 °F 58% 29.99 in 10.0 mi North 6.9 mph - N/A   Clear
4:55 AM 51.8 °F 35.6 °F 54% 30.00 in 10.0 mi North 6.9 mph - N/A   Clear
5:15 AM 50.0 °F 35.6 °F 58% 30.00 in 10.0 mi North 4.6 mph - N/A   Scattered Clouds
5:35 AM 50.0 °F 35.6 °F 58% 30.01 in 10.0 mi North 4.6 mph - N/A   Scattered Clouds
5:55 AM 50.0 °F 33.8 °F 54% 30.02 in 10.0 mi North 5.8 mph - N/A   Mostly Cloudy
6:15 AM 50.0 °F 33.8 °F 54% 30.02 in 10.0 mi North 6.9 mph - N/A   Overcast
6:35 AM 50.0 °F 33.8 °F 54% 30.04 in 10.0 mi North 3.5 mph - N/A   Overcast
6:55 AM 50.0 °F 33.8 °F 54% 30.04 in 10.0 mi North 3.5 mph - N/A   Overcast
7:15 AM 50.0 °F 33.8 °F 54% 30.05 in 10.0 mi North 5.8 mph - N/A   Mostly Cloudy
7:35 AM 50.0 °F 33.8 °F 54% 30.05 in 10.0 mi North 4.6 mph - N/A   Scattered Clouds
7:55 AM 51.8 °F 33.8 °F 50% 30.06 in 10.0 mi North 8.1 mph - N/A   Mostly Cloudy
8:15 AM 51.8 °F 32.0 °F 47% 30.07 in 10.0 mi North 9.2 mph - N/A   Overcast
8:35 AM 51.8 °F 33.8 °F 50% 30.07 in 10.0 mi NNW 9.2 mph - N/A   Overcast
8:55 AM 53.6 °F 33.8 °F 47% 30.07 in 10.0 mi NNW 8.1 mph - N/A   Mostly Cloudy
9:15 AM 53.6 °F 33.8 °F 47% 30.07 in 10.0 mi NNW 8.1 mph - N/A   Mostly Cloudy
9:35 AM 55.4 °F 33.8 °F 44% 30.08 in 10.0 mi NNW 5.8 mph - N/A   Mostly Cloudy
9:55 AM 55.4 °F 33.8 °F 44% 30.08 in 10.0 mi North 3.5 mph - N/A   Mostly Cloudy
10:15 AM 57.2 °F 33.8 °F 41% 30.08 in 10.0 mi NNW 9.2 mph - N/A   Scattered Clouds
10:35 AM 59.0 °F 33.8 °F 39% 30.08 in 10.0 mi NNW 8.1 mph - N/A   Scattered Clouds
10:55 AM 59.0 °F 35.6 °F 42% 30.08 in 10.0 mi North 6.9 mph - N/A   Clear
11:15 AM 59.0 °F 35.6 °F 42% 30.08 in 10.0 mi North 3.5 mph - N/A   Clear
11:35 AM 60.8 °F 35.6 °F 39% 30.08 in 10.0 mi ENE 4.6 mph - N/A   Clear
11:55 AM 60.8 °F 35.6 °F 39% 30.07 in 10.0 mi North 4.6 mph - N/A   Clear
12:15 PM 60.8 °F 37.4 °F 42% 30.07 in 10.0 mi East 4.6 mph - N/A   Clear
12:35 PM 62.6 °F 37.4 °F 39% 30.06 in 10.0 mi SSE 3.5 mph - N/A   Clear
12:55 PM 64.4 °F 37.4 °F 37% 30.05 in 10.0 mi WNW 3.5 mph - N/A   Clear
1:35 PM 64.4 °F 37.4 °F 37% 30.03 in 10.0 mi NNW 3.5 mph - N/A   Clear
1:55 PM 64.4 °F 37.4 °F 37% 30.03 in 10.0 mi Calm Calm - N/A   Clear
2:15 PM 66.2 °F 39.2 °F 37% 30.02 in 10.0 mi North 5.8 mph - N/A   Clear
2:35 PM 68.0 °F 37.4 °F 33% 30.01 in 10.0 mi West 3.5 mph - N/A   Clear
2:55 PM 68.0 °F 37.4 °F 33% 30.01 in 10.0 mi South 3.5 mph - N/A   Clear
3:15 PM 68.0 °F 37.4 °F 33% 30.00 in 10.0 mi East 3.5 mph - N/A   Clear
3:35 PM 68.0 °F 37.4 °F 33% 30.00 in 10.0 mi NNW 6.9 mph - N/A   Clear
3:55 PM 69.8 °F 37.4 °F 31% 29.99 in 10.0 mi NW 4.6 mph - N/A   Clear
4:15 PM 69.8 °F 37.4 °F 31% 29.98 in 10.0 mi NNW 5.8 mph - N/A   Clear
4:35 PM 69.8 °F 35.6 °F 28% 29.98 in 10.0 mi North 4.6 mph - N/A   Clear
4:55 PM 69.8 °F 35.6 °F 28% 29.99 in 10.0 mi North 6.9 mph - N/A   Clear
5:15 PM 69.8 °F 35.6 °F 28% 30.00 in 10.0 mi North 5.8 mph - N/A   Clear
5:35 PM 69.8 °F 35.6 °F 28% 29.99 in 10.0 mi North 6.9 mph - N/A   Clear
6:15 PM 68.0 °F 35.6 °F 30% 30.01 in 10.0 mi North 9.2 mph - N/A   Clear
6:35 PM 68.0 °F 35.6 °F 30% 30.01 in 10.0 mi North 9.2 mph - N/A   Clear
6:55 PM 66.2 °F 35.6 °F 32% 30.01 in 10.0 mi North 6.9 mph - N/A   Clear
7:15 PM 64.4 °F 37.4 °F 37% 30.02 in 10.0 mi North 5.8 mph - N/A   Clear
7:35 PM 62.6 °F 37.4 °F 39% 30.02 in 10.0 mi North 5.8 mph - N/A   Clear
7:55 PM 60.8 °F 37.4 °F 42% 30.04 in 10.0 mi North 4.6 mph - N/A   Clear
8:15 PM 60.8 °F 37.4 °F 42% 30.05 in 10.0 mi North 4.6 mph - N/A   Clear
8:35 PM 59.0 °F 39.2 °F 48% 30.06 in 10.0 mi NNE 4.6 mph - N/A   Clear
8:55 PM 55.4 °F 41.0 °F 58% 30.06 in 10.0 mi Calm Calm - N/A   Clear
9:15 PM 55.4 °F 41.0 °F 58% 30.07 in 10.0 mi NNW 3.5 mph - N/A   Clear
9:35 PM 51.8 °F 42.8 °F 71% 30.08 in 10.0 mi Calm Calm - N/A   Clear
9:55 PM 53.6 °F 41.0 °F 62% 30.09 in 10.0 mi Calm Calm - N/A   Clear
10:15 PM 51.8 °F 41.0 °F 67% 30.09 in 10.0 mi Calm Calm - N/A   Clear
10:35 PM 51.8 °F 41.0 °F 67% 30.09 in 10.0 mi Calm Calm - N/A   Clear
10:55 PM 50.0 °F 42.8 °F 76% 30.10 in 10.0 mi NNE 3.5 mph - N/A   Clear
11:15 PM 51.8 °F 41.0 °F 67% 30.10 in 10.0 mi Calm Calm - N/A   Clear
11:35 PM 50.0 °F 41.0 °F 71% 30.11 in 10.0 mi North 3.5 mph - N/A   Clear
11:55 PM 51.8 °F 41.0 °F 67% 30.10 in 10.0 mi Calm Calm - N/A   Clear